ONEWEB-0011 (44062 NORAD) Tracking and Keplerian Element Data

This shows tracking and keplerian element data for the satellite.

Feedback or suggestion? Click here.




ElementValue
Catalog44062
NameONEWEB-0011
Epoch Orbit28584
Epoch Day34.45289566
Epoch Year2025
RAAN358.495
Inclination87.911
Eccentricity0.0002115
Argument of Perigee81.4494
Mean Anonmoly278.6875
Mean Motion13.15548747
Decay Rate2.5E-07
L11 44062U 19010F 25034.45289566 .00000025 00000+0 32859-4 0 9993
L22 44062 87.9110 358.4950 0002115 81.4494 278.6875 13.15548747285842



Live tracking and technical data element details for ONEWEB-0011 (NORAD 44062). ONEWEB-0011 can be tracked NOW for your location showing map with azimuth and elevation plus other details from your city location.







IsCatalogInMostPopularTable: catalog: 44062, numindb: 1347
Update: records affected: 1



GetName: 44062 ONEWEB-0011

Hit Count: updated at: Thu, 10 Jul 2025 23:03:36 GMT